Location: Newark
(37.8444°N, 127.0614°E)
Time: 22:47:13
(UTC+00:00)

BEESAT 2 - Visible Passes

Search period start: 23 January 2020 00:00
Search period end: 02 February 2020 00:00
Orbit: 493 x 535 km, 64.9° (Epoch: 23 January)

Date Brightness Start Highest point End Pass type
(mag) Time Alt. Az. Time Alt. Az. Time Alt. Az.
23 Jan ? 20:36:05 15° NNE 20:37:56 20° NE 20:40:57 10° E visible
23 Jan ? 22:11:58 10° NW 22:15:36 33° WSW 22:19:10 10° S visible
24 Jan ? 20:20:48 19° NNE 20:21:38 21° NE 20:24:40 10° E visible
24 Jan ? 21:55:48 11° NW 21:59:18 33° WSW 22:02:52 10° S visible
25 Jan ? 20:05:38 21° NE 20:05:38 21° NE 20:08:22 10° E visible
25 Jan ? 21:40:38 18° WNW 21:42:59 33° WSW 21:46:33 10° S visible
26 Jan ? 19:50:35 17° E 19:50:35 17° E 19:52:05 10° E visible
26 Jan ? 21:25:34 27° W 21:26:41 32° WSW 21:30:14 10° S visible
27 Jan ? 19:35:37 11° E 19:35:37 11° E 19:35:48 10° E visible
27 Jan ? 21:10:38 32° WSW 21:10:38 32° WSW 21:13:55 10° S visible
28 Jan ? 10:54:18 10° SSW 10:55:55 23° S 10:55:55 23° S visible
28 Jan ? 20:55:47 22° SSW 20:55:47 22° SSW 20:57:36 10° S visible
29 Jan ? 10:37:59 10° SSW 10:41:11 51° SSE 10:41:11 51° SSE visible
29 Jan ? 20:41:01 11° S 20:41:01 11° S 20:41:17 10° S visible
30 Jan ? 10:21:41 10° SSW 10:25:33 61° ESE 10:26:22 48° ENE visible
31 Jan ? 10:05:22 10° SSW 10:09:14 62° ESE 10:11:27 24° NE visible
31 Jan ? 11:45:21 10° WNW 11:46:28 12° WNW 11:46:28 12° WNW visible
01 Feb ? 09:49:02 10° SSW 09:52:55 63° ESE 09:56:26 13° NE visible
01 Feb ? 11:29:04 10° WNW 11:30:56 13° NW 11:31:26 13° NW visible
